FW6471 Weather Reports


Display with metric or nautical units.
time (UTC)temp
F
wind
direction
speed
MPH
gust
MPH
rain 1hr
in
rain 24hr
in
rain mn
in
humidity
%
barometer
mb
20260505193109 88 137 2.0 8.0 0.00 0.00 0.00 45 1016.0
20260505192609 88 212 1.0 3.0 0.00 0.00 0.00 45 1016.1
20260505192109 87 331 1.0 3.0 0.00 0.00 0.00 44 1016.1
20260505191609 87 129 2.0 3.0 0.00 0.00 0.00 46 1016.1
20260505191109 88 162 3.0 7.0 0.00 0.00 0.00 46 1016.3
20260505190609 88 58 1.0 3.0 0.00 0.00 0.00 47 1016.3
20260505190116 87 128 2.0 3.0 0.00 0.00 0.00 48 1016.4
20260505185109 85 39 2.0 7.0 0.00 0.00 0.00 50 1016.6
20260505184608 85 148 2.0 5.0 0.00 0.00 0.00 50 1016.6
20260505184109 85 152 3.0 6.0 0.00 0.00 0.00 50 1016.5
20260505183609 85 67 1.0 3.0 0.00 0.00 0.00 49 1016.5
20260505183109 86 6 2.0 6.0 0.00 0.00 0.00 48 1016.6
20260505182108 85 139 5.0 9.0 0.00 0.00 0.00 50 1016.7
20260505181609 84 156 5.0 8.0 0.00 0.00 0.00 50 1016.7
20260505181109 85 152 2.0 7.0 0.00 0.00 0.00 50 1016.8
20260505180609 86 114 2.0 3.0 0.00 0.00 0.00 49 1016.9
20260505180115 86 46 3.0 7.0 0.00 0.00 0.00 48 1017.0
20260505174609 83 38 1.0 3.0 0.00 0.00 0.00 54 1017.2
20260505174109 83 147 2.0 3.0 0.00 0.00 0.00 54 1017.4
20260505173609 83 160 2.0 3.0 0.00 0.00 0.00 54 1017.4
20260505173109 84 114 2.0 5.0 0.00 0.00 0.00 52 1017.5
20260505171609 85 239 2.0 7.0 0.00 0.00 0.00 52 1017.6
20260505171108 84 111 3.0 7.0 0.00 0.00 0.00 53 1017.6
20260505170116 83 103 4.0 7.0 0.00 0.00 0.00 55 1017.7
20260505165609 83 160 2.0 8.0 0.00 0.00 0.00 55 1017.8
20260505164609 84 170 3.0 5.0 0.00 0.00 0.00 54 1017.7
20260505164109 83 86 2.0 8.0 0.00 0.00 0.00 55 1017.8
20260505163609 82 158 3.0 8.0 0.00 0.00 0.00 57 1017.9
20260505163109 82 82 2.0 5.0 0.00 0.00 0.00 56 1017.8
20260505162609 82 129 2.0 3.0 0.00 0.00 0.00 56 1017.8
20260505162109 82 166 5.0 8.0 0.00 0.00 0.00 55 1017.8
20260505161609 82 176 3.0 8.0 0.00 0.00 0.00 56 1017.8
20260505161108 82 166 1.0 7.0 0.00 0.00 0.00 56 1017.9
20260505160609 82 155 2.0 3.0 0.00 0.00 0.00 56 1017.8
20260505160115 83 348 3.0 5.0 0.00 0.00 0.00 55 1017.9
20260505153109 82 107 3.0 7.0 0.00 0.00 0.00 57 1017.8
20260505152609 81 117 3.0 5.0 0.00 0.00 0.00 59 1017.8
20260505152109 80 57 3.0 7.0 0.00 0.00 0.00 59 1017.9
20260505151609 80 75 1.0 5.0 0.00 0.00 0.00 61 1017.8
20260505151108 79 89 1.0 3.0 0.00 0.00 0.00 63 1017.8
20260505150609 79 165 2.0 3.0 0.00 0.00 0.00 62 1017.8
20260505150115 79 44 1.0 3.0 0.00 0.00 0.00 63 1017.8
20260505140608 77 99 3.0 6.0 0.00 0.00 0.00 70 1017.6
20260505140115 77 110 3.0 6.0 0.00 0.00 0.00 71 1017.4
20260505130115 70 101 1.0 3.0 0.00 0.00 0.00 86 1017.5
20260505124608 68 11 0.0 2.0 0.00 0.00 0.00 89 1017.4
20260505124109 67 11 1.0 1.0 0.00 0.00 0.00 88 1017.4
20260505123609 67 11 1.0 2.0 0.00 0.00 0.00 89 1017.3
20260505123108 66 11 1.0 3.0 0.00 0.00 0.00 90 1017.5
20260505122109 65 42 1.0 2.0 0.00 0.00 0.00 91 1017.6
20260505121608 65 42 0.0 2.0 0.00 0.00 0.00 91 1017.5
20260505121109 65 42 1.0 3.0 0.00 0.00 0.00 91 1017.6
20260505120608 64 54 0.0 1.0 0.00 0.00 0.00 92 1017.6
20260505120115 64 54 0.0 1.0 0.00 0.00 0.00 92 1017.5
20260505115608 64 54 0.0 3.0 0.00 0.00 0.00 92 1017.6
20260505115108 63 45 0.0 2.0 0.00 0.00 0.00 93 1017.4
20260505114608 63 45 2.0 5.0 0.00 0.00 0.00 93 1017.4
20260505113608 62 48 1.0 3.0 0.00 0.00 0.00 93 1017.2
20260505113108 61 48 1.0 3.0 0.00 0.00 0.00 93 1017.2
20260505112609 61 42 0.0 0.0 0.00 0.00 0.00 93 1017.1
20260505111608 60 42 0.0 0.0 0.00 0.00 0.00 93 1016.8
20260505111109 60 42 0.0 0.0 0.00 0.00 0.00 93 1016.7
20260505110608 60 42 0.0 0.0 0.00 0.00 0.00 92 1016.6
20260505110115 60 42 0.0 0.0 0.00 0.00 0.00 92 1016.5
20260505102108 60 42 0.0 0.0 0.00 0.00 0.00 92 1016.3
20260505101608 60 42 0.0 0.0 0.00 0.00 0.00 92 1016.2
20260505101109 60 42 0.0 0.0 0.00 0.00 0.00 92 1016.2
20260505100608 60 42 0.0 0.0 0.00 0.00 0.00 92 1016.2
20260505100114 60 42 0.0 0.0 0.00 0.00 0.00 92 1016.4
20260505095108 60 42 0.0 0.0 0.00 0.00 0.00 92 1016.2
20260505094608 60 42 0.0 0.0 0.00 0.00 0.00 92 1016.2
20260505094108 60 42 0.0 0.0 0.00 0.00 0.00 92 1016.3
20260505093609 60 42 0.0 0.0 0.00 0.00 0.00 92 1016.2
20260505093108 61 42 0.0 0.0 0.00 0.00 0.00 91 1016.1
20260505092608 61 42 0.0 0.0 0.00 0.00 0.00 91 1016.2
20260505092109 61 42 0.0 0.0 0.00 0.00 0.00 91 1016.1
20260505091108 61 42 0.0 0.0 0.00 0.00 0.00 91 1016.1
20260505090608 61 42 0.0 0.0 0.00 0.00 0.00 91 1016.0
20260505090114 61 42 0.0 0.0 0.00 0.00 0.00 91 1016.2
20260505085610 61 42 0.0 0.0 0.00 0.00 0.00 91 1016.1
20260505085108 61 42 0.0 0.0 0.00 0.00 0.00 91 1016.0
20260505083608 62 42 0.0 0.0 0.00 0.00 0.00 91 1015.9
20260505083108 62 42 0.0 0.0 0.00 0.00 0.00 91 1015.7
20260505082108 62 42 0.0 0.0 0.00 0.00 0.00 91 1016.0
20260505081608 62 42 0.0 0.0 0.00 0.00 0.00 90 1015.9
20260505081108 62 42 0.0 0.0 0.00 0.00 0.00 90 1015.8
20260505080608 62 42 0.0 0.0 0.00 0.00 0.00 90 1015.7
20260505080116 62 42 0.0 0.0 0.00 0.00 0.00 90 1015.7
20260505075608 62 42 0.0 0.0 0.00 0.00 0.00 90 1015.8
20260505075108 62 42 0.0 0.0 0.00 0.00 0.00 90 1015.8
20260505074608 62 42 0.0 0.0 0.00 0.00 0.00 90 1015.9
20260505074108 62 42 0.0 0.0 0.00 0.00 0.00 90 1015.9
20260505073608 62 42 0.0 0.0 0.00 0.00 0.00 89 1016.0
20260505073108 62 42 0.0 0.0 0.00 0.00 0.00 89 1016.1
20260505072108 63 42 0.0 0.0 0.00 0.00 0.00 89 1015.9
20260505071608 63 42 0.0 0.0 0.00 0.00 0.00 89 1016.1
20260505071108 63 42 0.0 0.0 0.00 0.00 0.00 89 1016.1
20260505070608 63 42 0.0 1.0 0.00 0.00 0.00 89 1016.1
20260505070114 63 42 0.0 1.0 0.00 0.00 0.00 89 1016.1
20260505065609 63 42 0.0 0.0 0.00 0.00 0.00 88 1016.0
20260505065108 63 42 0.0 1.0 0.00 0.00 0.00 88 1016.1
20260505064608 63 42 0.0 0.0 0.00 0.00 0.00 88 1016.1
20260505063608 63 42 0.0 0.0 0.00 0.00 0.00 88 1016.1
20260505063108 64 42 0.0 0.0 0.00 0.00 0.00 88 1016.4
20260505061607 64 42 0.0 0.0 0.00 0.00 0.00 87 1016.7
20260505061108 64 42 0.0 0.0 0.00 0.00 0.00 87 1016.7
20260505060608 64 42 0.0 0.0 0.00 0.00 0.00 86 1016.8
20260505060114 65 42 0.0 0.0 0.00 0.00 0.00 86 1016.9
20260505055608 65 42 0.0 2.0 0.00 0.00 0.00 86 1016.9
20260505054608 65 159 0.0 0.0 0.00 0.00 0.00 85 1016.9
20260505054108 65 159 0.0 0.0 0.00 0.00 0.00 85 1017.0
20260505053608 66 159 0.0 0.0 0.00 0.00 0.00 85 1017.1
20260505053108 66 159 0.0 0.0 0.00 0.00 0.00 84 1017.1
20260505052608 66 159 0.0 0.0 0.00 0.00 0.00 84 1017.2
20260505051608 66 159 0.0 0.0 0.00 0.00 0.00 84 1017.2
20260505050608 66 161 0.0 12.0 0.00 0.00 0.00 83 1017.4
20260505050114 66 161 0.0 0.0 0.00 0.00 0.00 83 1017.4
20260505041608 68 161 0.0 0.0 0.00 0.00 0.00 81 1017.8
20260505041108 68 161 0.0 0.0 0.00 0.00 0.00 80 1017.8
20260505040114 68 161 0.0 0.0 0.00 0.00 0.00 80 1017.6
20260505035108 68 161 0.0 0.0 0.00 0.00 0.00 79 1017.7
20260505034607 68 161 0.0 2.0 0.00 0.00 0.00 79 1017.6
20260505034109 69 163 0.0 1.0 0.00 0.00 0.00 78 1017.6
20260505033608 69 163 0.0 1.0 0.00 0.00 0.00 78 1017.6
20260505032107 69 163 0.0 1.0 0.00 0.00 0.00 77 1017.7
20260505031607 69 163 0.0 1.0 0.00 0.00 0.00 77 1017.7
20260505031108 69 163 0.0 0.0 0.00 0.00 0.00 77 1017.8
20260505030608 69 163 0.0 0.0 0.00 0.00 0.00 77 1017.8
20260505030114 69 163 0.0 1.0 0.00 0.00 0.00 77 1017.6
20260505025607 69 163 0.0 1.0 0.00 0.00 0.00 76 1017.7
20260505025108 70 163 0.0 1.0 0.00 0.00 0.00 76 1017.6
20260505024608 70 163 0.0 2.0 0.00 0.00 0.00 76 1017.6
20260505023608 70 164 1.0 2.0 0.00 0.00 0.00 75 1017.4
20260505022108 70 175 1.0 2.0 0.00 0.00 0.00 75 1017.5
20260505021108 71 82 0.0 1.0 0.00 0.00 0.00 74 1017.4
20260505020608 71 82 1.0 2.0 0.00 0.00 0.00 74 1017.4
20260505015609 71 55 1.0 3.0 0.00 0.00 0.00 73 1017.1
20260505015108 71 106 1.0 3.0 0.00 0.00 0.00 73 1017.0
20260505014608 71 109 1.0 2.0 0.00 0.00 0.00 73 1016.9
20260505014108 71 109 2.0 3.0 0.00 0.00 0.00 73 1016.8
20260505013608 71 128 1.0 2.0 0.00 0.00 0.00 73 1016.8
20260505013107 72 128 1.0 3.0 0.00 0.00 0.00 73 1016.8
20260505012108 72 129 1.0 3.0 0.00 0.00 0.00 72 1016.8
20260505011607 72 129 1.0 2.0 0.00 0.00 0.00 72 1016.7
20260505011108 72 129 1.0 3.0 0.00 0.00 0.00 72 1016.7
20260505010607 73 99 1.0 3.0 0.00 0.00 0.00 71 1016.6
20260505010114 73 99 1.0 3.0 0.00 0.00 0.00 71 1016.6
20260505005607 73 97 1.0 2.0 0.00 0.00 0.00 70 1016.5
20260505004608 73 93 2.0 3.0 0.00 0.00 0.00 70 1016.4
20260505004107 74 94 1.0 2.0 0.00 0.00 0.00 69 1016.4
20260505003607 74 93 1.0 3.0 0.00 0.00 0.00 69 1016.4
20260505003107 74 93 1.0 3.0 0.00 0.00 0.00 69 1016.4
20260505002108 74 118 1.0 3.0 0.00 0.00 0.00 67 1016.4
20260505001607 75 126 2.0 5.0 0.00 0.00 0.00 67 1016.3
20260505001109 75 125 2.0 3.0 0.00 0.00 0.00 67 1016.2
20260505000608 75 140 1.0 3.0 0.00 0.00 0.00 67 1016.0
20260505000114 75 140 1.0 2.0 0.00 0.00 0.00 66 1015.9
20260504235108 76 141 1.0 3.0 0.00 0.00 0.00 65 1015.8
20260504234107 76 122 2.0 7.0 0.00 0.00 0.00 64 1015.7
20260504232608 77 130 2.0 3.0 0.00 0.00 0.00 63 1015.5
20260504232108 77 111 1.0 3.0 0.00 0.00 0.00 62 1015.4
20260504231607 77 66 1.0 3.0 0.00 0.00 0.00 62 1015.4
20260504231107 78 97 2.0 5.0 0.00 0.00 0.00 61 1015.4
20260504230608 78 51 2.0 5.0 0.00 0.00 0.00 61 1015.5
20260504230114 78 109 3.0 5.0 0.00 0.00 0.00 61 1015.5
20260504225608 78 120 2.0 5.0 0.00 0.00 0.00 60 1015.4
20260504225107 78 48 2.0 5.0 0.00 0.00 0.00 60 1015.4
20260504224607 78 136 1.0 3.0 0.00 0.00 0.00 60 1015.4
20260504223607 79 85 2.0 3.0 0.00 0.00 0.00 58 1015.4
20260504223107 79 73 2.0 3.0 0.00 0.00 0.00 57 1015.5
20260504222607 79 116 1.0 3.0 0.00 0.00 0.00 56 1015.4
20260504222107 80 121 1.0 3.0 0.00 0.00 0.00 55 1015.5
20260504221607 80 136 2.0 3.0 0.00 0.00 0.00 55 1015.5
20260504220607 80 111 2.0 5.0 0.00 0.00 0.00 56 1015.4
20260504220113 80 145 1.0 3.0 0.00 0.00 0.00 55 1015.4
20260504215107 80 146 1.0 7.0 0.00 0.00 0.00 54 1015.4
20260504214107 80 103 2.0 3.0 0.00 0.00 0.00 53 1015.4
20260504213607 80 121 1.0 7.0 0.00 0.00 0.00 53 1015.3
20260504213107 81 110 2.0 5.0 0.00 0.00 0.00 51 1015.3
20260504212607 81 157 2.0 5.0 0.00 0.00 0.00 52 1015.4
20260504212108 81 114 2.0 5.0 0.00 0.00 0.00 52 1015.4
20260504211107 81 94 0.0 2.0 0.00 0.00 0.00 52 1015.5
20260504210607 81 112 1.0 3.0 0.00 0.00 0.00 52 1015.5
20260504205607 83 121 1.0 3.0 0.00 0.00 0.00 48 1015.5
20260504205108 84 89 2.0 7.0 0.00 0.00 0.00 46 1015.4
20260504204607 85 73 3.0 6.0 0.00 0.00 0.00 45 1015.3
20260504204108 84 183 2.0 7.0 0.00 0.00 0.00 45 1015.4
20260504203607 84 63 3.0 6.0 0.00 0.00 0.00 43 1015.4
20260504203108 84 78 2.0 5.0 0.00 0.00 0.00 45 1015.4
20260504202107 83 135 3.0 5.0 0.00 0.00 0.00 45 1015.7
20260504201108 83 86 1.0 3.0 0.00 0.00 0.00 44 1015.8
20260504200607 84 47 2.0 6.0 0.00 0.00 0.00 44 1016.0
20260504200114 83 69 3.0 7.0 0.00 0.00 0.00 43 1015.9
20260504195607 83 31 2.0 6.0 0.00 0.00 0.00 43 1016.0
20260504195107 83 22 2.0 6.0 0.00 0.00 0.00 42 1016.0
20260504194607 83 76 2.0 6.0 0.00 0.00 0.00 42 1016.1
20260504194107 84 167 3.0 8.0 0.00 0.00 0.00 41 1016.1
20260504193607 84 84 2.0 7.0 0.00 0.00 0.00 41 1016.3